PBO Station Position Time Series. Reference Frame : NAM14
Format Version,1.1.1
4-character ID,MNJC
Station name,JACOBSON
Begin Date, 2005-12-01
End Date, 2023-06-26
Release Date, 2023-06-27
Reference position, 46.9782969766 North Latitude, -93.2736970445 East Longitude, 350.95271 meters elevation,
Date, North (mm), East (mm), Vertical (mm), North Std. Deviation (mm), East Std. Deviation (mm),              Vertical Std. Deviation (mm), Quality,
2005-12-01,0.00, 0.00, 0.00, 2.29, 1.61, 7.32, repro,
2005-12-02,-0.42, -0.83, 1.85, 2.29, 1.61, 7.38, repro,
2005-12-03,-0.40, -1.21, 6.38, 2.26, 1.61, 7.35, repro,
2005-12-04,-0.26, -1.89, 4.93, 2.27, 1.63, 7.39, repro,
2005-12-06,-0.18, -0.98, -2.79, 2.29, 1.61, 7.34, repro,
2005-12-07,-1.33, -1.49, -5.14, 2.29, 1.63, 7.45, repro,
2005-12-08,-1.76, -1.13, -5.95, 2.28, 1.62, 7.42, repro,
2005-12-09,-2.08, -1.23, 3.32, 2.27, 1.62, 7.42, repro,
2005-12-10,-1.46, -1.31, 8.67, 2.27, 1.62, 7.39, repro,
2005-12-11,0.04, -1.33, 8.56, 2.24, 1.60, 7.25, repro,
2005-12-12,-0.30, -0.29, 3.93, 2.25, 1.60, 7.23, repro,
2005-12-13,-0.73, -0.76, 0.33, 2.35, 1.68, 7.64, repro,
2005-12-14,-0.29, -0.27, 2.93, 2.40, 1.71, 7.78, repro,
2005-12-15,-1.15, -1.58, 5.73, 2.31, 1.65, 7.58, repro,
2005-12-16,-1.86, -2.44, 4.06, 2.21, 1.59, 7.20, repro,
2005-12-17,-1.37, -2.24, -5.45, 2.30, 1.67, 7.58, repro,
2005-12-18,-1.48, -2.07, -15.15, 2.30, 1.63, 7.51, repro,
2005-12-19,-1.85, -2.85, -9.78, 2.33, 1.67, 7.68, repro,
2005-12-20,-2.19, -2.86, -7.52, 2.32, 1.69, 7.68, repro,
2005-12-21,-3.30, -2.03, 0.40, 2.26, 1.62, 7.41, repro,
2005-12-22,-4.16, -1.93, 8.31, 2.28, 1.63, 7.47, repro,
2005-12-23,-1.46, -0.32, 8.24, 2.49, 1.73, 8.03, repro,
2005-12-24,-0.96, -1.02, -1.21, 2.41, 1.66, 7.67, repro,
2005-12-25,-0.99, -0.36, 1.24, 2.46, 1.71, 7.98, repro,
2005-12-26,-2.03, -0.60, 9.14, 2.25, 1.61, 7.31, repro,
2005-12-27,-1.14, -1.97, 12.22, 2.42, 1.69, 7.80, repro,
2005-12-28,-0.58, -1.81, 11.11, 2.36, 1.68, 7.73, repro,
2005-12-29,0.15, -1.94, 9.71, 2.57, 1.80, 8.27, repro,
2005-12-30,-1.76, -1.05, 6.59, 2.42, 1.68, 7.81, repro,
2005-12-31,-0.95, -1.25, 10.16, 2.57, 1.81, 8.03, repro,
2006-01-01,-1.34, -0.68, 7.94, 2.48, 1.74, 7.86, repro,
2006-01-02,-0.62, -1.05, 5.81, 2.34, 1.67, 7.60, repro,
2006-01-03,-0.45, -0.90, 4.05, 2.57, 1.80, 8.25, repro,
2006-01-04,-2.30, -2.08, 2.98, 2.43, 1.68, 7.81, repro,
2006-01-05,-3.15, -1.11, -2.53, 2.41, 1.70, 7.84, repro,
2006-01-06,-2.33, -0.85, 3.97, 2.38, 1.68, 7.70, repro,
2006-01-07,-1.18, -1.79, 9.70, 2.33, 1.67, 7.64, repro,
2006-01-08,-0.10, -2.07, 6.00, 2.48, 1.72, 7.96, repro,
2006-01-09,-2.68, -2.22, 1.80, 2.48, 1.72, 7.96, repro,
2006-01-10,-3.14, -0.81, 3.47, 2.43, 1.67, 7.71, repro,
2006-01-11,-3.63, -1.52, 10.15, 2.48, 1.72, 7.82, repro,
2006-01-12,-1.35, -1.04, 9.66, 2.31, 1.66, 7.58, repro,
2006-01-13,-0.17, -2.86, 5.75, 2.42, 1.67, 7.62, repro,
2006-01-14,-1.49, -2.12, 4.94, 2.25, 1.60, 7.26, repro,
2006-01-15,-1.69, -1.58, 7.03, 2.31, 1.66, 7.58, repro,
2006-01-16,-2.67, -1.22, 10.84, 2.33, 1.65, 7.64, repro,
2006-01-17,-1.85, -1.22, 7.20, 2.44, 1.66, 7.68, repro,
2006-01-18,-1.68, -1.53, 9.51, 2.27, 1.62, 7.32, repro,
2006-01-19,-1.60, -2.97, 9.98, 2.28, 1.65, 7.40, repro,
2006-01-20,-2.73, -2.76, 6.41, 2.32, 1.69, 7.56, repro,
2006-01-21,-1.69, -2.32, 2.24, 2.27, 1.59, 7.27, repro,
2006-01-23,-0.88, -0.72, -1.28, 2.26, 1.60, 7.27, repro,
2006-01-24,-1.30, -4.33, 7.03, 2.32, 1.64, 7.43, repro,
2006-01-25,-1.07, -2.36, 1.28, 2.17, 1.54, 7.00, repro,
2006-01-26,-2.92, -0.67, 0.73, 2.19, 1.55, 7.08, repro,
2006-01-27,-2.97, -1.64, 0.75, 2.22, 1.56, 7.15, repro,
2006-01-28,-1.41, -0.92, 1.32, 2.22, 1.58, 7.21, repro,
2006-01-29,0.02, -0.92, 5.97, 2.21, 1.59, 7.21, repro,
2006-01-30,-2.10, -2.45, 7.18, 2.20, 1.58, 7.17, repro,
2006-01-31,-2.82, -1.72, 6.18, 2.20, 1.58, 7.17, repro,
2006-02-01,-2.60, -2.58, 8.16, 2.19, 1.56, 7.10, repro,
2006-02-02,-0.60, -1.29, 5.95, 2.21, 1.57, 7.14, repro,
2006-02-03,0.02, -1.48, 3.95, 2.25, 1.61, 7.32, repro,
2006-02-04,-0.65, -1.20, -4.85, 2.20, 1.58, 7.17, repro,
2006-02-05,-0.01, -1.24, -3.64, 2.21, 1.59, 7.18, repro,
2006-02-07,-1.43, -2.24, -5.64, 2.25, 1.63, 7.46, repro,
2006-02-08,-0.98, -1.85, -5.14, 2.27, 1.63, 7.52, repro,
2006-02-13,-1.38, -0.71, 10.09, 3.45, 2.47, 11.46, repro,
2006-02-14,-1.00, -2.00, 9.80, 2.22, 1.60, 7.25, repro,
2006-02-15,-0.68, -1.85, -3.92, 2.29, 1.71, 7.77, repro,
2006-02-16,0.32, -0.67, -8.11, 2.19, 1.59, 7.17, repro,
2006-02-17,-0.76, -1.50, -11.98, 2.19, 1.60, 7.20, repro,
2006-02-18,-0.61, 0.13, -18.61, 2.29, 1.74, 7.78, repro,
2006-02-19,-1.47, 0.63, -7.85, 2.29, 1.74, 7.72, repro,
2006-02-20,-1.96, 0.49, 1.43, 2.22, 1.65, 7.44, repro,
2006-02-21,-1.95, 0.36, 5.46, 2.22, 1.64, 7.42, repro,
2006-02-22,-2.70, 0.55, 7.54, 2.24, 1.68, 7.55, repro,
2006-02-23,-1.61, -0.57, 2.44, 2.25, 1.71, 7.62, repro,
2006-02-24,-0.21, -0.78, -2.04, 2.17, 1.60, 7.17, repro,
2006-02-25,-0.20, -1.66, -10.87, 2.26, 1.70, 7.61, repro,
2006-02-26,-0.86, -1.17, -12.02, 2.23, 1.66, 7.49, repro,
2006-02-27,-0.19, -0.60, -2.68, 2.22, 1.64, 7.29, repro,
2006-02-28,0.31, 0.17, 1.63, 2.27, 1.70, 7.60, repro,
2006-03-01,-0.33, -0.34, 6.71, 2.24, 1.69, 7.58, repro,
2006-03-02,-1.82, 0.10, -3.91, 2.24, 1.67, 7.42, repro,
2006-03-03,-0.99, -0.28, -7.98, 2.32, 1.77, 7.89, repro,
2006-03-04,-0.27, -0.39, -9.35, 2.21, 1.65, 7.43, repro,
2006-03-05,-1.86, -1.20, -7.18, 2.16, 1.60, 7.15, repro,
2006-03-06,-2.11, -1.54, -6.18, 2.17, 1.61, 7.23, repro,
2006-03-07,-4.36, -1.17, -6.33, 2.18, 1.61, 7.23, repro,
2006-03-08,-2.02, -1.89, 4.07, 2.19, 1.62, 7.31, repro,
2006-03-09,-1.35, -0.73, 17.60, 2.17, 1.59, 7.22, repro,
2006-03-10,-0.80, 0.09, 7.24, 3.85, 2.61, 12.73, repro,
2006-03-11,0.29, -0.60, 3.82, 2.19, 1.62, 7.42, repro,
2006-03-12,-1.20, -1.23, -3.20, 2.23, 1.63, 7.49, repro,
2006-03-13,3.14, -4.85, -24.28, 35.11, 14.79, 177.94, repro,
2006-03-14,0.13, -2.64, -1.16, 2.22, 1.64, 7.50, repro,
2006-03-15,-0.17, -1.23, -9.50, 2.23, 1.64, 7.49, repro,
2006-03-16,-0.54, -0.75, -11.90, 2.27, 1.66, 7.63, repro,
2006-03-17,0.18, -0.85, -13.02, 2.29, 1.67, 7.73, repro,
2006-03-18,0.20, -0.59, -20.37, 2.23, 1.63, 7.47, repro,
2006-03-19,0.82, -0.44, -17.14, 2.24, 1.66, 7.59, repro,
2006-03-20,-0.62, -0.41, -13.61, 2.23, 1.65, 7.51, repro,
2006-03-21,-0.19, -0.60, -9.88, 2.20, 1.62, 7.33, repro,
2006-03-22,-0.46, -0.88, -13.78, 2.22, 1.65, 7.40, repro,
2006-03-23,-0.23, -1.66, -18.65, 2.36, 1.72, 7.79, repro,
2006-03-28,1.72, 0.16, -8.08, 3.44, 2.35, 11.09, repro,
2006-03-29,-0.56, 1.34, -2.50, 2.22, 1.63, 7.37, repro,
2006-03-30,-0.55, 1.47, 2.91, 2.22, 1.63, 7.37, repro,
2006-03-31,-0.88, -0.44, 1.89, 2.18, 1.59, 7.24, repro,
2006-04-01,-1.88, -0.86, -1.25, 2.17, 1.59, 7.22, repro,
2006-04-02,-1.76, 0.05, -0.72, 2.23, 1.65, 7.43, repro,
2006-04-03,-1.40, -0.93, -2.55, 2.20, 1.59, 7.24, repro,
2006-04-04,-0.50, 0.13, -2.43, 2.18, 1.59, 7.20, repro,
2006-04-05,-0.55, 0.81, 1.70, 2.22, 1.63, 7.31, repro,
2006-04-06,0.53, -0.63, 8.42, 3.71, 2.54, 12.17, repro,
2006-04-07,0.45, 0.43, 1.82, 2.22, 1.67, 7.42, repro,
2006-04-08,-0.26, 0.85, -1.17, 2.23, 1.62, 7.31, repro,
2006-04-10,-0.67, 0.91, 4.83, 3.19, 2.18, 10.12, repro,
2006-04-11,-1.00, -0.03, 10.89, 2.30, 1.66, 7.43, repro,
2006-04-12,-1.82, -0.11, 3.45, 2.27, 1.63, 7.34, repro,
2006-04-13,-1.40, 1.65, 3.55, 2.17, 1.59, 7.14, repro,
2006-04-14,-0.68, -0.02, 5.27, 2.24, 1.63, 7.45, repro,
2006-04-15,-0.35, 0.32, 9.20, 2.25, 1.61, 7.34, repro,
2006-04-16,-0.24, -0.38, 6.28, 2.18, 1.59, 7.18, repro,
2006-04-17,2.09, 1.74, 14.36, 3.81, 2.52, 12.22, repro,
2006-04-18,-1.65, 0.51, 6.54, 2.23, 1.64, 7.32, repro,
2006-04-19,-2.53, 1.07, 1.51, 2.40, 1.74, 7.94, repro,
2006-04-20,-0.60, -0.37, 8.00, 2.29, 1.65, 7.61, repro,
2006-04-21,-2.33, -1.50, 3.75, 2.19, 1.58, 7.16, repro,
2006-04-22,-0.68, -1.38, 4.02, 2.20, 1.60, 7.24, repro,
2006-04-23,-0.21, -1.44, 2.25, 2.18, 1.59, 7.19, repro,
2006-04-24,-0.17, -0.17, 10.58, 3.87, 2.68, 12.29, repro,
2006-04-25,-0.44, -1.30, -1.32, 2.23, 1.64, 7.31, repro,
2006-04-27,-0.84, -0.87, 10.46, 3.97, 2.73, 12.66, repro,
2006-04-28,-1.41, -0.60, 5.98, 2.94, 2.04, 9.60, repro,
2006-04-29,-2.34, -1.25, -3.51, 2.19, 1.58, 7.12, repro,
2006-04-30,-1.25, -0.68, 2.16, 2.18, 1.58, 7.11, repro,
2006-05-01,-2.06, -0.31, 2.99, 2.18, 1.58, 7.09, repro,
2006-05-02,-2.01, -0.95, 3.41, 2.19, 1.58, 7.14, repro,
2006-05-03,-4.78, -2.33, 6.12, 2.19, 1.59, 7.11, repro,
2006-05-04,-2.53, -2.23, 8.05, 2.20, 1.59, 7.15, repro,
2006-05-05,-0.84, -0.77, 9.42, 2.18, 1.58, 7.09, repro,
2006-05-06,-1.60, -0.99, 6.15, 2.19, 1.58, 7.13, repro,
2006-05-07,-0.72, -0.72, 11.77, 2.19, 1.58, 7.14, repro,
2006-05-08,-1.39, -1.40, 11.90, 2.19, 1.58, 7.09, repro,
2006-05-09,-3.02, -1.49, 9.37, 2.27, 1.63, 7.30, repro,
2006-05-10,-2.09, -1.82, 7.08, 2.19, 1.58, 7.12, repro,
2006-05-11,-1.38, -2.10, 7.45, 2.21, 1.59, 7.18, repro,
2006-05-12,-1.03, -1.05, 10.06, 2.19, 1.58, 7.10, repro,
2006-05-13,-0.97, -1.24, 6.09, 2.19, 1.58, 7.10, repro,
2006-05-14,-2.04, -0.87, 1.48, 2.21, 1.58, 7.14, repro,
2006-05-15,-1.97, -1.04, 2.14, 2.20, 1.58, 7.09, repro,
2006-05-16,-1.31, -1.29, 10.70, 2.24, 1.60, 7.24, repro,
2006-05-17,-1.37, -1.90, 17.59, 2.30, 1.65, 7.44, repro,
2006-05-18,-1.52, 0.65, 15.15, 2.25, 1.63, 7.31, repro,
2006-05-19,-1.97, -0.73, 14.03, 2.25, 1.62, 7.28, repro,
2006-05-20,-2.65, -0.39, 8.67, 2.27, 1.62, 7.29, repro,
2006-05-22,-3.47, -1.77, 7.56, 3.37, 2.21, 10.37, repro,
2006-05-23,-1.56, 1.80, 10.03, 2.26, 1.61, 7.27, repro,
2006-05-24,-3.54, -1.05, 9.40, 2.28, 1.64, 7.41, repro,
2006-05-25,-2.37, 0.48, 17.32, 2.49, 1.77, 7.96, repro,
2006-05-29,-3.24, -0.97, 9.86, 4.04, 2.64, 12.64, repro,
2006-05-30,-4.05, -1.33, 5.16, 2.34, 1.66, 7.56, repro,
2006-05-31,-0.75, -1.29, 1.25, 2.28, 1.64, 7.38, repro,
2006-06-01,-1.98, -0.48, -3.65, 2.32, 1.64, 7.42, repro,
2006-06-02,-1.14, -1.83, -0.10, 2.31, 1.68, 7.60, repro,
2006-06-03,-1.30, -1.03, 1.61, 2.31, 1.66, 7.53, repro,
2006-06-04,-1.73, -1.05, 7.06, 2.32, 1.66, 7.54, repro,
2006-06-05,-2.35, 0.37, 10.26, 2.31, 1.66, 7.51, repro,
2006-06-06,-1.26, -1.36, 4.92, 2.34, 1.68, 7.62, repro,
2006-06-07,-0.80, -1.51, 1.42, 2.36, 1.70, 7.72, repro,
2006-06-08,-0.32, -1.02, -3.02, 2.33, 1.64, 7.49, repro,
2006-06-09,-1.39, -0.36, 9.58, 2.27, 1.61, 7.30, repro,
2006-06-10,-1.04, -0.98, 4.03, 2.27, 1.61, 7.30, repro,
2006-06-11,-0.70, -0.64, 3.95, 2.32, 1.64, 7.42, repro,
2006-06-12,-4.35, -3.42, 3.13, 3.87, 2.50, 11.32, repro,
2006-06-13,0.13, -3.12, 8.54, 3.81, 2.45, 11.43, repro,
2006-06-14,-1.04, -1.58, 2.15, 2.24, 1.60, 7.20, repro,
2006-06-15,-3.42, -0.91, 5.53, 2.40, 1.72, 7.54, repro,
2006-06-16,-3.34, -0.63, 12.71, 2.28, 1.64, 7.39, repro,
2006-06-17,-2.18, 0.04, 16.09, 3.65, 2.37, 10.90, repro,
2006-06-18,-1.94, -1.09, 10.15, 2.33, 1.68, 7.54, repro,
2006-06-19,-0.46, -1.98, 9.32, 2.32, 1.66, 7.46, repro,
2006-06-20,-3.34, -2.06, 9.99, 2.54, 1.84, 8.22, repro,
2006-06-21,-2.54, -2.39, 5.41, 2.35, 1.70, 7.59, repro,
2006-06-22,-0.56, -3.16, 7.85, 2.31, 1.67, 7.40, repro,
2006-06-23,-1.30, -0.32, -1.51, 2.40, 1.69, 7.60, repro,
2006-06-24,-0.59, -2.22, 4.42, 2.30, 1.67, 7.42, repro,
2006-06-25,-0.32, -2.56, 0.60, 2.34, 1.66, 7.48, repro,
2006-06-26,0.83, -3.16, -1.44, 2.44, 1.75, 7.97, repro,
2006-06-27,0.35, -1.31, 10.69, 2.43, 1.74, 7.88, repro,
2006-06-28,-2.63, -2.77, 3.52, 2.29, 1.67, 7.38, repro,
2006-06-29,-0.90, -0.43, 0.84, 2.23, 1.63, 7.29, repro,
2006-06-30,-0.15, -1.57, 5.19, 3.37, 2.18, 10.15, repro,
2006-07-01,-0.54, -1.40, 11.78, 2.40, 1.76, 7.78, repro,
2006-07-02,-2.89, -1.09, 3.45, 2.26, 1.62, 7.23, repro,
2006-07-03,-1.00, -2.78, 7.64, 2.33, 1.66, 7.41, repro,
2006-07-04,-1.31, -1.55, 5.81, 2.26, 1.61, 7.23, repro,
2006-07-05,-0.04, -0.07, 4.43, 2.28, 1.64, 7.40, repro,
2006-07-06,-1.39, 0.28, -2.05, 2.28, 1.63, 7.34, repro,
2006-07-07,-0.13, -0.88, 0.03, 2.25, 1.62, 7.27, repro,
2006-07-08,0.53, -3.57, -0.84, 2.32, 1.65, 7.47, repro,
2006-07-09,0.64, -0.76, 18.93, 2.31, 1.64, 7.43, repro,
2006-07-10,-0.07, 0.00, 6.81, 2.28, 1.62, 7.31, repro,
2006-07-11,-0.49, -1.14, 7.50, 2.28, 1.63, 7.34, repro,
2006-07-12,-0.95, -0.14, 6.25, 2.26, 1.63, 7.32, repro,
2006-07-18,2.43, -0.76, -0.20, 4.20, 2.92, 13.68, repro,
2006-07-26,-3.49, -0.11, 12.20, 2.37, 1.68, 7.67, repro,
2006-07-27,-2.23, -0.79, 16.11, 2.23, 1.59, 7.19, repro,
2006-07-28,-3.22, -2.43, 8.01, 2.23, 1.60, 7.19, repro,
2006-07-29,-1.31, 0.19, 25.88, 2.36, 1.67, 7.55, repro,
2006-07-30,-2.47, 0.04, 19.83, 2.72, 1.90, 8.59, repro,
2006-07-31,-4.44, -1.59, 19.15, 2.81, 1.92, 8.89, repro,
2006-08-01,-2.12, -0.22, 17.68, 2.22, 1.59, 7.20, repro,
2006-08-02,-2.53, -2.42, 11.57, 2.35, 1.69, 7.56, repro,
2006-08-03,-1.31, -1.27, 7.05, 2.27, 1.63, 7.31, repro,
2006-08-04,-0.90, -0.54, 16.53, 2.39, 1.71, 7.69, repro,
2006-08-05,-1.44, 0.07, 13.26, 2.26, 1.63, 7.25, repro,
2006-08-06,-2.26, 0.20, 9.05, 2.32, 1.66, 7.42, repro,
2006-08-07,-1.64, -0.82, 3.90, 2.26, 1.63, 7.30, repro,
2006-08-08,-1.76, -0.21, 3.01, 2.20, 1.58, 7.11, repro,
2006-08-09,-3.71, 2.49, 22.47, 7.30, 6.21, 26.31, repro,
2006-08-10,0.77, -1.78, 0.75, 4.71, 3.46, 16.69, repro,
2006-08-11,-2.03, -0.30, 12.93, 2.18, 1.58, 7.07, repro,
2006-08-12,-2.33, -1.05, 12.35, 2.19, 1.59, 7.10, repro,
2006-08-13,-1.15, -1.09, 10.52, 2.24, 1.60, 7.24, repro,
2006-08-14,-2.18, -1.02, 14.56, 2.31, 1.61, 7.37, repro,
2006-08-15,-1.06, -1.27, 6.15, 2.35, 1.65, 7.44, repro,
2006-08-16,0.86, -0.14, 11.80, 2.82, 1.92, 8.69, repro,
2006-08-17,-12.66, 5.02, 50.92, 4.42, 2.80, 14.06, repro,
2006-08-21,-4.00, -3.57, 6.66, 6.36, 5.14, 22.79, repro,
2006-08-22,-2.40, -0.51, 7.45, 2.26, 1.60, 7.27, repro,
2006-08-23,-0.97, -1.22, 21.51, 2.24, 1.60, 7.27, repro,
2006-08-24,-2.19, -0.96, 17.89, 2.42, 1.71, 7.85, repro,
2006-08-25,-1.14, -0.65, 12.78, 2.31, 1.64, 7.41, repro,
2006-08-26,-1.43, -0.56, 8.42, 2.33, 1.67, 7.40, repro,
2006-08-27,-2.97, -0.32, 16.25, 2.34, 1.67, 7.43, repro,
2006-08-28,-2.08, -0.58, 14.67, 2.35, 1.68, 7.51, repro,
2006-08-29,-1.29, -0.78, 5.91, 2.35, 1.69, 7.51, repro,
2006-08-30,-1.37, -0.39, 11.54, 2.35, 1.68, 7.47, repro,
2006-08-31,-2.49, -1.69, 4.57, 2.34, 1.67, 7.40, repro,
2006-09-01,-1.63, 0.21, 10.38, 2.34, 1.68, 7.51, repro,
2006-09-02,-1.95, -0.93, 6.90, 2.42, 1.75, 7.82, repro,
2006-09-03,-3.43, -1.80, 10.92, 2.37, 1.71, 7.62, repro,
2006-09-04,-1.12, -1.22, 8.11, 2.38, 1.72, 7.74, repro,
2006-09-05,-2.14, -1.28, 9.31, 2.38, 1.71, 7.68, repro,
2006-09-06,-4.57, -1.28, 8.74, 2.32, 1.66, 7.37, repro,
2006-09-07,-1.74, -0.72, 13.58, 2.36, 1.73, 7.64, repro,
2006-09-08,-0.95, -0.75, 14.32, 2.38, 1.75, 7.72, repro,
2006-09-09,-1.13, 0.62, 11.03, 2.29, 1.64, 7.35, repro,
2006-09-10,-1.90, 0.05, 4.59, 2.27, 1.63, 7.24, repro,
2006-09-11,-1.92, -1.32, 5.29, 2.27, 1.61, 7.22, repro,
2006-09-12,-3.71, -1.46, 6.46, 2.28, 1.61, 7.20, repro,
2006-09-13,-1.93, -1.12, 12.67, 2.30, 1.64, 7.36, repro,
2006-09-14,-1.42, 0.69, 12.40, 2.46, 1.71, 7.78, repro,
2006-09-15,-2.61, -0.36, 11.27, 2.30, 1.63, 7.39, repro,
2006-09-16,-1.61, 0.11, 9.21, 2.24, 1.61, 7.25, repro,
2006-09-17,-3.02, -0.90, 23.84, 2.35, 1.62, 7.49, repro,
2006-09-18,-1.91, -2.05, 17.87, 2.89, 1.95, 8.88, repro,
2006-09-21,-1.83, -0.16, 16.30, 3.29, 2.54, 11.19, repro,
2006-09-22,-2.74, -0.23, 17.60, 2.33, 1.65, 7.45, repro,
2006-09-23,-2.56, -0.88, 14.69, 2.30, 1.61, 7.32, repro,
2006-09-24,-1.64, -2.13, 12.35, 2.37, 1.66, 7.54, repro,
2006-09-25,-1.57, -1.01, 9.06, 2.29, 1.63, 7.31, repro,
2006-09-26,-2.09, -0.55, 6.59, 2.27, 1.64, 7.35, repro,
2006-09-27,-1.52, -1.05, 6.67, 2.28, 1.63, 7.31, repro,
2006-09-29,-2.72, -0.16, 15.65, 2.37, 1.70, 7.45, repro,
2006-10-02,-2.11, 0.34, 10.13, 2.31, 1.64, 7.45, repro,
2006-10-03,-2.26, 0.32, 6.81, 2.35, 1.64, 7.49, repro,
2006-10-04,-1.16, -1.14, -1.27, 2.32, 1.64, 7.35, repro,
2006-10-05,-0.43, -1.06, -2.71, 2.25, 1.59, 7.14, repro,
2006-10-06,-1.97, 0.01, -2.23, 2.27, 1.63, 7.28, repro,
2006-10-07,-1.89, -0.37, 4.16, 2.45, 1.74, 7.68, repro,
2006-10-08,-2.54, -0.64, 13.26, 2.33, 1.64, 7.42, repro,
2006-10-09,-2.85, -0.75, -1.39, 4.50, 2.92, 13.78, repro,
2006-10-10,-5.24, -1.51, -2.83, 3.44, 2.80, 11.93, repro,
2006-10-11,-0.32, -1.15, 11.95, 2.29, 1.64, 7.33, repro,
2006-10-12,-0.80, -0.90, 18.17, 2.24, 1.60, 7.27, repro,
2006-10-13,-1.64, -1.63, 18.44, 2.20, 1.58, 7.17, repro,
2006-10-14,-1.70, -2.41, 16.37, 2.32, 1.67, 7.36, repro,
2006-10-15,-1.19, -1.09, 16.84, 2.24, 1.62, 7.23, repro,
2006-10-16,0.88, -0.06, 8.48, 2.23, 1.59, 7.23, repro,
2006-10-17,-1.31, -0.32, 12.55, 2.23, 1.61, 7.23, repro,
2006-10-18,-1.65, -1.73, 7.96, 2.18, 1.58, 7.13, repro,
2006-10-19,-1.01, -1.36, 15.45, 2.30, 1.65, 7.35, repro,
2006-10-20,-0.71, -1.69, 18.05, 2.52, 1.82, 7.79, repro,
2006-10-21,-0.52, -1.13, 7.91, 2.34, 1.69, 7.44, repro,
2006-10-22,-0.03, -0.35, 7.59, 2.27, 1.65, 7.29, repro,
2006-10-23,-1.34, -0.40, 6.05, 2.56, 1.82, 8.30, repro,
2006-10-24,-0.17, 0.05, 12.88, 2.79, 2.03, 9.85, repro,
2006-10-26,-1.96, -0.48, 7.26, 3.36, 2.56, 11.43, repro,
2006-10-27,-0.52, -0.50, 6.10, 2.31, 1.67, 7.32, repro,
2006-10-28,-0.05, -0.87, 13.92, 2.24, 1.65, 7.31, repro,
2006-10-29,-0.33, -1.78, 13.40, 2.26, 1.65, 7.33, repro,
2006-10-30,-0.55, -1.43, 17.76, 2.27, 1.61, 7.26, repro,
2006-10-31,-0.67, -1.96, 12.73, 2.26, 1.64, 7.23, repro,
2006-11-01,-1.08, -1.15, 5.27, 2.33, 1.70, 7.35, repro,
2006-11-02,-2.76, 0.05, -1.00, 2.21, 1.60, 7.15, repro,
2006-11-03,-0.75, -0.60, -0.10, 2.31, 1.68, 7.33, repro,
2006-11-04,-1.44, -0.03, 7.78, 2.67, 1.95, 8.81, repro,
2006-11-05,-2.50, -0.76, 11.42, 2.34, 1.70, 7.48, repro,
2006-11-06,-3.11, -1.21, 7.27, 2.19, 1.57, 7.04, repro,
2006-11-07,-1.34, -1.33, 10.62, 2.39, 1.72, 7.54, repro,
2006-11-08,-1.49, -0.36, 15.92, 2.28, 1.67, 7.40, repro,
2006-11-09,0.70, -1.06, 21.43, 2.41, 1.76, 7.73, repro,
2006-11-10,-0.66, -1.74, 7.61, 2.28, 1.63, 7.36, repro,
2006-11-11,-1.41, -0.66, 7.43, 2.31, 1.64, 7.35, repro,
2006-11-12,-1.13, -0.17, 6.57, 2.37, 1.68, 7.57, repro,
2006-11-13,-1.42, 0.53, 9.44, 2.29, 1.64, 7.42, repro,
2006-11-14,0.01, -0.53, 13.40, 2.59, 1.88, 8.49, repro,
2006-11-15,-0.63, -0.19, 15.13, 2.19, 1.55, 7.05, repro,
2006-11-16,-0.19, -0.32, 13.28, 2.22, 1.56, 7.11, repro,
2006-11-17,-1.36, -0.46, 13.57, 2.25, 1.60, 7.33, repro,
2006-11-18,-0.06, -1.83, 5.19, 2.20, 1.57, 7.10, repro,
2006-11-19,-0.89, -1.13, 1.50, 2.19, 1.57, 7.13, repro,
2006-11-20,-1.33, -0.17, 2.91, 2.19, 1.57, 7.14, repro,
2006-11-21,-1.76, -0.86, 9.26, 2.20, 1.57, 7.14, repro,
2006-11-22,-1.56, -0.35, 7.56, 2.19, 1.56, 7.08, repro,
2006-11-23,-0.56, -0.86, 4.75, 2.23, 1.61, 7.26, repro,
2006-11-24,-1.12, -0.84, 9.60, 2.23, 1.61, 7.26, repro,
2006-11-25,-0.51, -0.41, 10.02, 2.20, 1.58, 7.16, repro,
2006-11-26,-1.44, -0.83, 5.46, 2.25, 1.60, 7.29, repro,
2006-11-27,-0.02, -1.11, 0.00, 2.23, 1.58, 7.22, repro,
2006-11-28,-0.83, 0.34, 6.01, 2.21, 1.58, 7.14, repro,
2006-11-29,-0.52, -1.76, 11.06, 2.20, 1.57, 7.12, repro,
2006-11-30,-0.57, -2.50, -1.56, 2.20, 1.58, 7.17, repro,
2006-12-01,-0.47, -1.28, 5.57, 2.21, 1.57, 7.15, repro,
2006-12-02,-1.28, -2.08, -2.91, 2.18, 1.55, 7.05, repro,
2006-12-03,-1.04, -2.45, -6.15, 2.18, 1.55, 7.03, repro,
2006-12-04,-0.88, -2.23, -1.38, 2.21, 1.58, 7.16, repro,
2006-12-05,-0.96, -1.10, 0.70, 2.24, 1.62, 7.36, repro,
2006-12-06,-1.59, -2.15, 6.52, 2.26, 1.64, 7.43, repro,
2006-12-07,-1.91, -1.69, -7.56, 2.20, 1.58, 7.15, repro,
2006-12-08,-2.23, -1.23, -0.14, 2.26, 1.60, 7.27, repro,
2006-12-09,-2.30, -0.50, 13.42, 2.29, 1.62, 7.36, repro,
2006-12-10,-1.35, -0.85, 12.27, 2.29, 1.66, 7.50, repro,
2006-12-11,-1.38, -0.38, 7.34, 2.19, 1.57, 7.12, repro,
2006-12-12,-2.47, 0.10, 5.47, 2.24, 1.61, 7.29, repro,
2006-12-13,-2.90, -0.94, 17.59, 2.19, 1.58, 7.16, repro,
2006-12-14,-2.83, -1.32, 20.35, 2.28, 1.65, 7.54, repro,
2006-12-15,-1.38, -0.47, 20.36, 2.53, 1.81, 8.06, repro,
2006-12-16,-1.25, -0.33, 15.77, 2.35, 1.68, 7.66, repro,
2006-12-17,-1.78, -0.86, 12.28, 2.37, 1.71, 7.74, repro,
2006-12-18,-2.39, -0.63, 6.77, 2.47, 1.75, 8.00, repro,
2006-12-19,-3.26, -0.58, 7.10, 2.35, 1.63, 7.58, repro,
2006-12-20,-2.42, -1.02, 10.90, 2.27, 1.60, 7.28, repro,
2006-12-21,-1.15, -0.77, 7.69, 2.17, 1.56, 7.04, repro,
2006-12-22,-0.72, -0.31, 8.63, 2.39, 1.71, 7.73, repro,
2006-12-23,-3.65, -1.28, 15.37, 2.26, 1.59, 7.23, repro,
2006-12-24,-2.44, -1.80, 6.94, 2.21, 1.57, 7.07, repro,
2006-12-25,-0.50, -1.01, 4.64, 2.28, 1.60, 7.27, repro,
2006-12-26,-0.64, -1.34, 10.68, 2.26, 1.60, 7.23, repro,
2006-12-27,-1.38, -0.87, 14.47, 2.31, 1.62, 7.33, repro,
2006-12-28,-1.27, -1.46, 7.98, 2.53, 1.78, 8.15, repro,
2006-12-29,-1.94, -0.45, -6.35, 2.44, 1.74, 7.87, repro,
2006-12-30,-1.97, -2.78, -8.39, 2.33, 1.62, 7.37, repro,
2006-12-31,0.59, -1.91, -1.07, 2.45, 1.75, 7.94, repro,
2007-05-17,-1.24, -1.93, -0.35, 2.20, 1.61, 7.25, repro,
2007-05-18,-1.94, -2.09, 3.35, 2.27, 1.65, 7.51, repro,
2007-05-19,1.47, -2.17, -2.07, 2.30, 1.64, 7.43, repro,
2007-05-20,-0.38, -1.52, 5.53, 2.25, 1.61, 7.33, repro,
2007-05-21,-2.57, -1.34, 4.14, 2.19, 1.56, 7.07, repro,
2007-05-22,-2.10, -1.48, 6.15, 2.21, 1.57, 7.11, repro,
2007-05-23,-1.62, -1.72, 4.09, 2.21, 1.57, 7.09, repro,
2007-05-24,0.01, -1.97, -3.28, 2.30, 1.64, 7.43, repro,
2007-05-25,-0.35, -2.37, -4.69, 2.20, 1.57, 7.08, repro,
2007-05-26,-0.85, -2.03, 3.94, 2.18, 1.56, 7.02, repro,
2007-05-27,-3.36, -2.14, 4.08, 2.18, 1.57, 7.04, repro,
2007-05-28,-2.47, -1.98, 6.28, 2.20, 1.57, 7.02, repro,
2007-05-29,-0.72, -3.43, 3.52, 2.19, 1.58, 7.08, repro,
2007-05-30,-0.02, -3.89, -0.04, 2.27, 1.66, 7.32, repro,
2007-05-31,-0.94, -3.43, 2.72, 2.25, 1.62, 7.35, repro,
2007-06-01,-1.36, -2.79, -0.95, 2.19, 1.57, 7.05, repro,
2007-06-02,-0.57, -3.33, 0.60, 2.17, 1.57, 7.02, repro,
2007-06-03,-0.73, -4.93, 2.41, 2.18, 1.56, 7.01, repro,
2007-06-04,0.82, -4.92, 9.08, 2.40, 1.73, 7.74, repro,
2007-06-05,-0.49, -3.10, 5.32, 2.36, 1.74, 7.66, repro,
2007-06-06,0.90, -2.21, 10.76, 2.20, 1.58, 7.08, repro,
2007-06-07,-1.97, -3.02, 12.36, 2.33, 1.75, 7.79, repro,
2007-06-08,-0.21, -4.06, 9.02, 3.19, 2.31, 10.15, repro,
2007-06-09,-1.08, -3.49, -1.19, 2.36, 1.67, 7.46, repro,
2007-06-10,-1.64, -4.96, 1.87, 2.35, 1.68, 7.49, repro,
2007-06-11,-1.82, -3.32, 6.43, 2.44, 1.70, 7.73, repro,
2007-06-12,-2.49, -4.20, 3.46, 2.41, 1.71, 7.73, repro,
2007-06-13,-0.95, -4.29, -7.26, 2.34, 1.68, 7.48, repro,
2007-06-14,-0.64, -5.36, 1.07, 2.33, 1.67, 7.47, repro,
2007-06-15,-0.79, -4.04, -6.17, 2.55, 1.88, 8.34, repro,
2007-06-16,0.29, -5.44, -8.33, 2.36, 1.68, 7.53, repro,
2007-06-17,-2.69, -3.86, -1.22, 2.47, 1.76, 7.86, repro,
2007-06-18,-2.17, -5.21, 12.97, 2.38, 1.71, 7.66, repro,
2007-06-19,2.50, -5.07, 3.32, 3.30, 2.23, 10.11, repro,
2007-06-20,0.34, -3.45, -2.19, 2.31, 1.66, 7.37, repro,
2007-06-21,-1.07, -3.69, 1.84, 2.34, 1.68, 7.48, repro,
2007-06-22,-0.70, -3.80, -0.28, 2.35, 1.66, 7.44, repro,
2007-06-23,0.14, -4.45, -0.09, 2.36, 1.67, 7.49, repro,
2007-06-24,-1.66, -5.17, 6.93, 2.49, 1.77, 7.94, repro,
2007-06-26,5.31, -2.74, -14.89, 5.23, 3.42, 14.80, repro,
2007-06-27,1.27, -4.01, -7.45, 2.34, 1.67, 7.47, repro,
2007-06-28,-0.23, -3.79, -0.25, 2.34, 1.67, 7.46, repro,
2007-06-29,-1.00, -4.22, 2.94, 2.40, 1.71, 7.63, repro,
2007-06-30,0.22, -2.14, 2.70, 2.35, 1.68, 7.49, repro,
2007-07-01,-0.13, -3.18, 3.81, 2.31, 1.67, 7.47, repro,
2007-07-02,-2.10, -4.62, 9.47, 2.38, 1.73, 7.60, repro,
2007-07-03,-1.88, -4.18, 3.46, 2.36, 1.66, 7.48, repro,
2007-07-04,-0.36, -3.86, 5.67, 2.36, 1.68, 7.52, repro,
2007-07-05,-0.82, -5.27, 5.62, 2.37, 1.69, 7.59, repro,
2007-07-06,0.53, -4.14, 0.64, 2.33, 1.66, 7.41, repro,
2007-07-07,-0.51, -2.10, 7.56, 2.32, 1.67, 7.45, repro,
2007-07-08,0.63, -4.03, 15.50, 2.41, 1.69, 7.62, repro,
2007-07-09,-1.73, -5.34, 3.42, 2.36, 1.67, 7.48, repro,
2007-07-10,3.85, -4.95, 10.96, 2.50, 1.76, 7.96, repro,
2007-07-11,0.35, -3.90, 8.47, 2.44, 1.71, 7.66, repro,
2007-07-12,-0.25, -4.64, 6.27, 2.35, 1.67, 7.49, repro,
2007-07-13,0.52, -2.56, 6.15, 2.35, 1.69, 7.54, repro,
2007-07-14,1.31, -4.03, 5.95, 2.43, 1.69, 7.70, repro,
2007-07-15,-0.78, -3.69, 12.47, 2.38, 1.67, 7.50, repro,